Location: Passau
(48.5721°N, 13.4363°E)
Time: 12:37:04
(UTC+02:00)

ISS - Pass Details

Date: 02 October 2020
Orbit: 418 x 420 km, 51.6° (Epoch: 21 October)

Event Time Altitude Azimuth Distance (km) Brightness Sun altitude
Rises 20:18:55 0° 291° (WNW) 2,370 1.8 -16.7°
Reaches altitude 10° 20:21:03 10° 287° (WNW) 1,504 0.4 -17.0°
Maximum altitude 20:24:22 58° 208° (SSW) 496 -3.4 -17.6°
Enters shadow 20:25:10 43° 155° (SSE) 603 -3.3 -17.7°
